Weather History for Kansas City International, MO

Change the Weather History Date:

Monday, April 8, 2013

  Actual Average Record
Temperature  
Mean Temperature 63 °F 52 °F  
Max Temperature 73 °F 63 °F 84 °F (2001)
Min Temperature 52 °F 41 °F 20 °F (2007)
Degree Days  
Heating Degree Days 2 13  
Month to date heating degree days 111 114  
Since 1 July heating degree days 4679 4805  
Cooling Degree Days 0 1  
Month to date cooling degree days 0 2  
Year to date cooling degree days 0 5  
Growing Degree Days 12 (Base 50)    
Moisture  
Dew Point 56 °F    
Average Humidity 80    
Maximum Humidity 93    
Minimum Humidity 66    
Precipitation  
Precipitation 0.00 in 0.11 in 1.41 in (1961)
Month to date precipitation 0.85 0.80  
Year to date precipitation 5.69 5.70  
Snow  
Snow 0.00 in 0.00 in 7.00 in (1938)
Month to date snowfall 0.0 0.3  
Since 1 July snowfall 31.3 18.5  
Snow Depth 0.00 in    
Sea Level Pressure  
Sea Level Pressure 29.69 in    
Wind  
Wind Speed 9 mph (South)    
Max Wind Speed 20 mph    
Max Gust Speed 24 mph    
Visibility 9 miles    
Events Rain , Hail , Thunderstorm    
T = Trace of Precipitation, MM = Missing Value Source: NWS Daily Summary

Daily Weather History Graph

Daily Weather History Graph

Search for Another Location

Airport:

Trip Planner

Search our weather history database for the weather conditions in past years. The results will help you decide how hot, cold, wet, or windy it might be!

Date:

Astronomy

Apr. 08, 2013 Rise Set
Actual Time 6:52 AM CDT 7:49 PM CDT
Civil Twilight 6:24 AM CDT 8:17 PM CDT
Nautical Twilight 5:52 AM CDT 8:49 PM CDT
Astronomical Twilight 5:18 AM CDT 9:23 PM CDT
Moon 5:42 AM CDT (4/8) 6:25 PM CDT (4/8)
Length of Visible Light 13h 52m
Length of Day
12h 57m
Waning Crescent, 3% of the Moon is Illuminated
Apr 8
Waning Crescent
Apr 10
New
Apr 18
First Quarter
Apr 25
Full
May 2
Last Quarter

Hourly Weather History & Observations

Time (CDT) Temp. Dew Point Humidity Pressure Visibility Wind Dir Wind Speed Gust Speed Precip Events Conditions
12:11 AM 60.8 °F 53.6 °F 77% 29.72 in 1.8 mi WSW 13.8 mph 31.1 mph 0.01 in Rain , Thunderstorm Heavy Thunderstorms and Rain
12:15 AM 57.2 °F 51.8 °F 82% 29.71 in 2.0 mi SW 15.0 mph 23.0 mph 0.15 in Rain , Hail , Thunderstorm Heavy Thunderstorms with Hail
12:25 AM 57.2 °F 51.8 °F 82% 29.71 in 6.0 mi WSW 15.0 mph 26.5 mph 0.18 in Rain , Hail , Thunderstorm Thunderstorms with Hail
12:53 AM 54.0 °F 50.0 °F 86% 29.69 in 10.0 mi SW 8.1 mph - 0.23 in Thunderstorm Thunderstorm
1:21 AM 53.6 °F 50.0 °F 88% 29.71 in 10.0 mi West 4.6 mph - N/A   Overcast
1:53 AM 52.0 °F 48.9 °F 89% 29.69 in 10.0 mi WSW 6.9 mph - N/A   Mostly Cloudy
2:43 AM 53.6 °F 50.0 °F 88% 29.70 in 10.0 mi SW 5.8 mph - N/A   Mostly Cloudy
2:53 AM 53.1 °F 51.1 °F 93% 29.68 in 10.0 mi SW 5.8 mph - N/A   Mostly Cloudy
3:53 AM 54.0 °F 51.1 °F 90% 29.67 in 10.0 mi South 4.6 mph - N/A   Overcast
4:05 AM 53.6 °F 51.8 °F 94% 29.68 in 10.0 mi South 3.5 mph - N/A   Overcast
4:53 AM 54.0 °F 52.0 °F 93% 29.65 in 10.0 mi South 4.6 mph - N/A   Overcast
5:33 AM 55.4 °F 51.8 °F 88% 29.68 in 10.0 mi South 5.8 mph - N/A   Overcast
5:53 AM 55.0 °F 52.0 °F 89% 29.66 in 10.0 mi South 6.9 mph - N/A   Overcast
6:53 AM 54.0 °F 52.0 °F 93% 29.68 in 10.0 mi South 8.1 mph - N/A   Overcast
7:53 AM 55.9 °F 54.0 °F 93% 29.71 in 8.0 mi South 5.8 mph - N/A   Overcast
8:53 AM 59.0 °F 55.9 °F 90% 29.70 in 8.0 mi SSE 8.1 mph - N/A   Mostly Cloudy
9:53 AM 62.1 °F 57.9 °F 86% 29.70 in 9.0 mi SSW 6.9 mph - N/A   Mostly Cloudy
10:53 AM 66.0 °F 59.0 °F 78% 29.71 in 10.0 mi SSW 11.5 mph - N/A   Mostly Cloudy
11:53 AM 68.0 °F 60.1 °F 76% 29.72 in 10.0 mi SSW 11.5 mph - N/A   Overcast
12:53 PM 69.1 °F 60.1 °F 73% 29.71 in 10.0 mi South 11.5 mph - N/A   Overcast
1:18 PM 71.6 °F 60.8 °F 69% 29.72 in 10.0 mi SSW 10.4 mph 18.4 mph N/A   Overcast
1:53 PM 70.0 °F 61.0 °F 73% 29.70 in 10.0 mi South 10.4 mph - N/A   Mostly Cloudy
2:08 PM 69.8 °F 60.8 °F 73% 29.72 in 10.0 mi SSE 9.2 mph - N/A   Overcast
2:53 PM 70.0 °F 60.1 °F 71% 29.70 in 10.0 mi South 8.1 mph - N/A   Overcast
3:53 PM 72.0 °F 60.1 °F 66% 29.68 in 10.0 mi SE 12.7 mph - N/A   Mostly Cloudy
4:53 PM 71.1 °F 60.1 °F 68% 29.67 in 10.0 mi SSE 15.0 mph - N/A   Overcast
5:53 PM 71.1 °F 59.0 °F 66% 29.67 in 10.0 mi SSE 15.0 mph - N/A   Mostly Cloudy
6:53 PM 69.1 °F 59.0 °F 70% 29.68 in 10.0 mi South 11.5 mph - N/A   Overcast
7:53 PM 66.9 °F 59.0 °F 76% 29.69 in 10.0 mi SSE 6.9 mph - N/A   Overcast
8:53 PM 66.0 °F 57.9 °F 75% 29.70 in 10.0 mi ESE 6.9 mph - N/A   Mostly Cloudy
9:53 PM 66.9 °F 57.9 °F 73% 29.72 in 10.0 mi SE 12.7 mph - N/A   Overcast
10:53 PM 66.9 °F 57.9 °F 73% 29.72 in 10.0 mi SSE 10.4 mph - N/A   Overcast
11:53 PM 66.0 °F 57.0 °F 73% 29.70 in 10.0 mi SSE 12.7 mph - N/A   Overcast